Printer-friendly version

IAU Minor Planet Center

Minor Planet Center

MPEC 2006-O26 : 2006 OK3

The following Minor Planet Electronic Circular may be linked-to from your own Web pages, but must not otherwise be redistributed electronically.


Read MPEC 2006-O25 Read MPEC 2006-O27


M.P.E.C. 2006-O26                                Issued 2006 July 23, 03:46 UT

     The Minor Planet Electronic Circulars contain information on unusual
         minor planets and routine data on comets.  They are published
   on behalf of Commission 20 of the International Astronomical Union by the
          Minor Planet Center, Smithsonian Astrophysical Observatory,
                          Cambridge, MA 02138, U.S.A.

                  Supported in part by the Brinson Foundation
                  Supported in part by the TABASGO Foundation
             Prepared using the Tamkin Foundation Computer Network

                              MPC@CFA.HARVARD.EDU
          URL http://cfa-www.harvard.edu/iau/mpc.html  ISSN 1523-6714

                                   2006 OK3

                           Revision to MPEC 2006-O22

Additional Observations:
     K06O03K  C2006 07 23.03331 21 30 12.55 -29 08 05.2          16.3 R EO026I77
     K06O03K  C2006 07 23.03387 21 30 17.47 -29 06 33.1          16.5 R EO026I77
     K06O03K  C2006 07 23.03443 21 30 22.51 -29 05 00.2          16.3 R EO026I77
     K06O03K  C2006 07 23.03517 21 30 29.11 -29 02 56.9          16.2 R EO026I77
     K06O03K  C2006 07 23.03629 21 30 39.09 -28 59 49.8          16.1 R EO026I77
     K06O03K  C2006 07 23.03723 21 30 47.75 -28 57 11.2          16.3 R EO026I77
     K06O03K  C2006 07 23.07596121 35 00.24 -27 36 57.3                 EO026J95
     K06O03K  C2006 07 23.07991921 35 39.52 -27 23 48.4                 EO026J95
     K06O03K  C2006 07 23.08005821 35 40.88 -27 23 19.2          16.4 R EO026J95

Observer details:
I77 CEAMIG-REA Observatory, Belo Horizonte.  Observers C. Jacques, E. Pimentel.
    Measurer C. Jacques.  0.30-m f/3.0 Schmidt-Cassegrain + CCD.
J95 Great Shefford.  Observer P. Birtwhistle.  0.40-m f/6.0 Schmidt-Cassegrain
    + CCD.

Orbital elements:
2006 OK3                                                 Earth MOID = 0.0008 AU
Epoch 2006 Sept. 22.0 TT = JDT 2454000.5                MPC
M   6.22511              (2000.0)            P               Q
n   0.45322092     Peri.   66.77594     +0.97457037     -0.13011824
a   1.6785312      Node   300.25670     +0.02554358     +0.87333887
e   0.5189998      Incl.   12.19292     +0.22262104     +0.46941288
P   2.17           H   27.1           G   0.15           U   5
Residuals in seconds of arc
060722 E12  0.5-  0.7-    060722 E12  0.0   0.1+    060722 E12  1.0+  1.9+
060722 E12  0.4-  0.5-    060722 E12  0.3-  0.9-    060722 E12  0.6-  0.4+
060722 E12  0.4+  0.2+    060722 E12  0.2+  0.3+    060722 E12  1.0-  0.6-
060722 E12  0.1+  0.0     060722 E12  0.4-  0.5-    060723 I77  1.3+  0.5+
060722 E12  0.0   0.1-    060722 E12  0.4-  0.4+    060723 I77  0.0   0.2-
060722 E12  0.8+  0.5+    060722 E12  0.2-  0.5+    060723 I77  0.3+  0.5-
060722 E12  0.1+  0.2-    060722 E12  0.1+  0.6-    060723 I77  0.3-  0.6-
060722 E12  0.1+  0.2-    060722 E12  0.1-  0.1+    060723 I77  1.6-  0.9-
060722 E12  0.4+  0.3+    060722 E12  0.2+  0.5+    060723 I77  0.8+  0.4-
060722 E12  0.1-  0.0     060722 E12  0.4+  0.1+    060723 J95  0.7+  1.3-
060722 E12  0.2+  0.1+    060722 E12  0.0   0.6-    060723 J95  0.2-  0.1+
060722 E12  0.0   0.2+    060722 E12  0.1+  0.7+    060723 J95  0.6-  1.4+
060722 E12  0.1-  0.1-    060722 E12  0.2-  0.1-

Ephemeris:
2006 OK3                 a,e,i = 1.68, 0.52, 12                  q = 0.8074
Date    TT    R. A. (2000) Decl.     Delta      r     Elong.  Phase     V
2006 07 19.0  19 59.62   -48 02.4    0.0377   1.050   152.8    26.2    21.3
2006 07 19.2  20 00.25   -47 57.5    0.0360   1.048   152.9    26.2    21.2
2006 07 19.4  20 00.93   -47 52.1    0.0343   1.047   152.9    26.2    21.1
2006 07 19.6  20 01.67   -47 46.0    0.0327   1.045   153.0    26.2    21.0
2006 07 19.8  20 02.50   -47 39.2    0.0310   1.044   153.1    26.1    20.8
2006 07 20.0  20 03.41   -47 31.6    0.0293   1.042   153.2    26.1    20.7
2006 07 20.2  20 04.44   -47 22.9    0.0276   1.041   153.3    26.0    20.6
2006 07 20.4  20 05.58   -47 13.0    0.0259   1.039   153.4    26.0    20.4
2006 07 20.6  20 06.88   -47 01.6    0.0242   1.038   153.6    25.9    20.3
2006 07 20.8  20 08.36   -46 48.4    0.0225   1.036   153.7    25.7    20.1
2006 07 21.0  20 10.06   -46 32.9    0.0208   1.035   153.9    25.6    19.9
2006 07 21.2  20 12.04   -46 14.6    0.0191   1.033   154.2    25.4    19.7
2006 07 21.4  20 14.38   -45 52.4    0.0174   1.032   154.5    25.1    19.5
2006 07 21.6  20 17.17   -45 25.2    0.0158   1.030   154.8    24.8    19.3
2006 07 21.8  20 20.56   -44 51.2    0.0141   1.029   155.3    24.4    19.0

2006 07 22.0  20 24.78   -44 07.4    0.0124   1.027   155.9    23.8    18.7
2006 07 22.1  20 27.29   -43 40.4    0.0116   1.027   156.2    23.5    18.6
2006 07 22.2  20 30.14   -43 08.9    0.0107   1.026   156.6    23.2    18.4
2006 07 22.3  20 33.42   -42 31.9    0.00990  1.025   157.0    22.8    18.2
2006 07 22.4  20 37.21   -41 47.5    0.00907  1.024   157.5    22.3    18.0
2006 07 22.5  20 41.65   -40 53.7    0.00825  1.024   158.1    21.8    17.8
2006 07 22.6  20 46.91   -39 47.1    0.00743  1.023   158.7    21.2    17.5
2006 07 22.7  20 53.23   -38 22.7    0.00661  1.022   159.3    20.6    17.3
2006 07 22.8  21 00.98   -36 32.9    0.00580  1.021   159.9    20.0    17.0
2006 07 22.9  21 10.66   -34 05.4    0.00501  1.021   160.4    19.5    16.6
2006 07 23.0  21 23.03   -30 38.8    0.00424  1.020   160.2    19.7    16.3
2006 07 23.1  21 39.32   -25 35.7    0.00350  1.019   158.5    21.4    15.9
2006 07 23.2  22 01.45   -17 47.8    0.00282  1.018   153.4    26.5    15.6
2006 07 23.3  22 32.53   -05 23.5    0.00226  1.018   142.3    37.6    15.4
2006 07 23.4  23 17.23   +13 08.8    0.00192  1.017   123.2    56.7    15.6
2006 07 23.5  00 20.63   +34 14.3    0.00193  1.016    99.5    80.4    16.4
2006 07 23.6  01 41.45   +49 30.6    0.00228  1.016    79.5   100.4    17.6
2006 07 23.7  03 04.10   +56 43.4    0.00285  1.015    66.2   113.7    18.8
2006 07 23.8  04 11.00   +59 02.2    0.00353  1.014    57.7   122.1    19.9
2006 07 23.9  04 58.58   +59 16.8    0.00427  1.013    52.2   127.6    20.8
2006 07 24.0  05 31.52   +58 48.3    0.00504  1.013    48.4   131.4    21.5

2006 07 24.2  06 11.79   +57 27.5    0.00664  1.011    43.7   136.1    22.6
2006 07 24.4  06 34.59   +56 16.3    0.00828  1.010    40.8   138.9    23.4
2006 07 24.6  06 48.99   +55 20.3    0.00994  1.008    39.0   140.6    24.0
2006 07 24.8  06 58.84   +54 36.6    0.0116   1.007    37.8   141.8    24.5
2006 07 25.0  07 05.99   +54 02.0    0.0133   1.005    36.8   142.7    25.0

Gareth V. Williams           (C) Copyright 2006 MPC           M.P.E.C. 2006-O26

Read MPEC 2006-O25 Read MPEC 2006-O27


Our Web policy. Index to the CBAT/MPC/ICQ pages.


Valid HTML 4.01!